Torna al catalogo

SATCOM 3 DEB

AttivoHEO
NORAD 32987·DEBRIS·🇺🇸 United States

Lanciato Dec 7, 1979 da Cape Canaveral Space Force Station

Loading…

Prossimi Passaggi (prossime 24 ore)

TLE

AggiornatoSource: Space-Track

Epoca: Sep 14, 2026, 11:53 UTC

1 32987U 79101N   26257.49581039 -.00000121  00000-0  00000-0 0  9993
2 32987  10.1713  21.3516 4939901 231.9243 167.8701  1.83475780124539

Traccia SATCOM 3 DEB in tempo reale con AllMySat

Download on the App Store